Weather History for Minden, LA

Change the Weather History Date:

Wednesday, April 9, 2014

  Actual Average (KBAD) Record (KBAD)
Temperature  
Mean Temperature 55 °F -  
Max Temperature 74 °F 71 °F 91 °F (2011)
Min Temperature 36 °F 52 °F 37 °F (2014)
Degree Days  
Heating Degree Days 10    
Growing Degree Days 5 (Base 50)    
Moisture  
Dew Point 37 °F    
Average Humidity 57    
Maximum Humidity 97    
Minimum Humidity 22    
Precipitation  
Precipitation 0.00 in - - ()
Sea Level Pressure  
Sea Level Pressure 30.19 in    
Wind  
Wind Speed 1 mph (South)    
Max Wind Speed 8 mph    
Max Gust Speed 18 mph    
Visibility 10 miles    
Events      
Averages and records for this station are not official NWS values.
T = Trace of Precipitation, MM = Missing Value Source: NWS Daily Summary

Daily Weather History Graph

Daily Weather History Graph

Search for Another Location

Airport:

Trip Planner

Search our weather history database for the weather conditions in past years. The results will help you decide how hot, cold, wet, or windy it might be!

Date:

Astronomy

Apr. 09, 2014 Rise Set
Actual Time 6:51 AM CDT 7:38 PM CDT
Civil Twilight 6:26 AM CDT 8:03 PM CDT
Nautical Twilight 5:56 AM CDT 8:33 PM CDT
Astronomical Twilight 5:26 AM CDT 9:03 PM CDT
Moon 2:43 PM CDT (4/9) 3:23 AM CDT (4/9)
Length of Visible Light 13h 37m
Length of Day
12h 47m
Waxing Gibbous, 72% of the Moon is Illuminated
Apr 9
Waxing Gibbous
Apr 15
Full
Apr 22
Last Quarter
Apr 29
New
May 6
First Quarter

Hourly Weather History & Observations

Time (CDT) Temp. Dew Point Humidity Pressure Visibility Wind Dir Wind Speed Gust Speed Precip Events Conditions
12:15 AM 42.6 °F 40.1 °F 91% 30.15 in 10.0 mi Calm Calm - N/A   Clear
12:35 AM 41.7 °F 39.2 °F 91% 30.15 in 10.0 mi Calm Calm - N/A   Clear
12:55 AM 40.6 °F 38.5 °F 92% 30.15 in 10.0 mi Calm Calm - N/A   Clear
1:15 AM 41.0 °F 39.2 °F 93% 30.15 in 10.0 mi Calm Calm - N/A   Clear
1:35 AM 40.3 °F 38.5 °F 93% 30.15 in 10.0 mi Calm Calm - N/A   Clear
1:55 AM 40.3 °F 38.5 °F 93% 30.16 in 10.0 mi Calm Calm - N/A   Clear
2:15 AM 40.3 °F 38.5 °F 93% 30.17 in 10.0 mi Calm Calm - N/A   Clear
2:35 AM 39.6 °F 37.6 °F 93% 30.17 in 10.0 mi Calm Calm - N/A   Clear
2:55 AM 39.6 °F 37.8 °F 93% 30.17 in 10.0 mi Calm Calm - N/A   Clear
3:15 AM 38.8 °F 37.4 °F 95% 30.17 in 10.0 mi Calm Calm - N/A   Clear
3:35 AM 38.7 °F 37.4 °F 95% 30.17 in 10.0 mi Calm Calm - N/A   Clear
3:55 AM 38.3 °F 36.9 °F 95% 30.18 in 10.0 mi Calm Calm - N/A   Clear
4:15 AM 38.5 °F 37.0 °F 95% 30.17 in 10.0 mi Calm Calm - N/A   Clear
4:35 AM 37.9 °F 36.7 °F 95% 30.17 in 10.0 mi Calm Calm - N/A   Clear
4:55 AM 38.3 °F 37.0 °F 95% 30.18 in 10.0 mi Calm Calm - N/A   Clear
5:15 AM 37.4 °F 36.1 °F 95% 30.18 in 10.0 mi Calm Calm - N/A   Clear
5:35 AM 38.3 °F 37.0 °F 95% 30.18 in 10.0 mi Calm Calm - N/A   Clear
5:55 AM 37.4 °F 36.3 °F 96% 30.19 in 10.0 mi Calm Calm - N/A   Clear
6:15 AM 37.6 °F 36.5 °F 96% 30.20 in 10.0 mi Calm Calm - N/A   Clear
6:35 AM 37.0 °F 35.8 °F 95% 30.20 in 10.0 mi Calm Calm - N/A   Clear
6:55 AM 37.0 °F 35.8 °F 95% 30.22 in 10.0 mi Calm Calm - N/A   Clear
7:15 AM 36.3 °F 34.9 °F 95% 30.23 in 10.0 mi Calm Calm - N/A   Clear
7:35 AM 38.5 °F 37.6 °F 97% 30.23 in 10.0 mi Calm Calm - N/A   Clear
7:55 AM 42.1 °F 40.8 °F 95% 30.24 in 10.0 mi Calm Calm - N/A   Clear
8:15 AM 44.6 °F 42.8 °F 93% 30.25 in 10.0 mi Calm Calm - N/A   Clear
8:35 AM 47.3 °F 42.4 °F 83% 30.25 in 10.0 mi Calm Calm - N/A   Clear
8:55 AM 50.4 °F 43.0 °F 76% 30.26 in 10.0 mi Calm Calm - N/A   Clear
9:15 AM 53.1 °F 43.5 °F 70% 30.27 in 10.0 mi Calm Calm - N/A   Clear
9:35 AM 56.1 °F 41.0 °F 57% 30.27 in 10.0 mi Calm Calm - N/A   Clear
9:55 AM 59.4 °F 41.7 °F 52% 30.27 in 10.0 mi Calm Calm - N/A   Clear
10:15 AM 61.2 °F 38.5 °F 43% 30.28 in 10.0 mi Calm Calm - N/A   Clear
10:35 AM 63.5 °F 33.3 °F 32% 30.28 in 10.0 mi Calm Calm - N/A   Clear
10:55 AM 64.0 °F 31.5 °F 30% 30.29 in 10.0 mi West 4.6 mph - N/A   Clear
11:15 AM 64.6 °F 32.7 °F 30% 30.28 in 10.0 mi SW 4.6 mph - N/A   Clear
11:35 AM 65.7 °F 33.1 °F 30% 30.28 in 10.0 mi Calm Calm - N/A   Clear
11:55 AM 66.4 °F 34.0 °F 30% 30.28 in 10.0 mi WSW 8.1 mph - N/A   Clear
12:15 PM 67.1 °F 32.4 °F 28% 30.27 in 10.0 mi Calm Calm - N/A   Clear
12:35 PM 68.0 °F 32.7 °F 27% 30.27 in 10.0 mi WSW 4.6 mph - N/A   Clear
12:55 PM 68.9 °F 35.4 °F 29% 30.26 in 10.0 mi Calm Calm - N/A   Clear
1:15 PM 68.5 °F 32.9 °F 27% 30.25 in 10.0 mi Calm Calm - N/A   Clear
1:35 PM 69.4 °F 32.4 °F 25% 30.24 in 10.0 mi Calm Calm - N/A   Clear
1:50 PM 70.3 °F 32.7 °F 25% 30.23 in 10.0 mi SW 3.5 mph 18.4 mph N/A   Clear
2:15 PM 71.1 °F 34.3 °F 26% 30.22 in 10.0 mi SW 5.8 mph - N/A   Clear
2:30 PM 71.4 °F 32.0 °F 23% 30.22 in 10.0 mi NW 6.9 mph - N/A   Clear
2:55 PM 72.7 °F 33.3 °F 24% 30.20 in 10.0 mi West 5.8 mph - N/A   Clear
3:15 PM 72.0 °F 32.2 °F 23% 30.19 in 10.0 mi Calm Calm - N/A   Clear
3:35 PM 73.0 °F 32.7 °F 23% 30.18 in 10.0 mi SW 5.8 mph - N/A   Clear
3:55 PM 73.6 °F 33.3 °F 23% 30.17 in 10.0 mi WSW 5.8 mph - N/A   Clear
4:15 PM 73.9 °F 32.5 °F 22% 30.16 in 10.0 mi Calm Calm - N/A   Clear
4:35 PM 73.6 °F 32.4 °F 22% 30.15 in 10.0 mi Calm Calm - N/A   Clear
4:55 PM 74.1 °F 33.1 °F 22% 30.14 in 10.0 mi Calm Calm - N/A   Clear
5:15 PM 73.8 °F 32.7 °F 22% 30.14 in 10.0 mi SW 3.5 mph - N/A   Clear
5:35 PM 74.1 °F 34.3 °F 23% 30.13 in 10.0 mi SW 5.8 mph - N/A   Clear
5:55 PM 73.8 °F 34.9 °F 24% 30.13 in 10.0 mi South 6.9 mph - N/A   Clear
6:15 PM 73.0 °F 36.0 °F 26% 30.13 in 10.0 mi SSW 6.9 mph - N/A   Clear
6:35 PM 72.1 °F 36.0 °F 27% 30.13 in 10.0 mi South 5.8 mph - N/A   Clear
6:55 PM 71.1 °F 36.3 °F 28% 30.12 in 10.0 mi SSE 3.5 mph - N/A   Clear
7:15 PM 69.6 °F 36.3 °F 29% 30.12 in 10.0 mi Calm Calm - N/A   Clear
7:35 PM 67.3 °F 37.8 °F 34% 30.12 in 10.0 mi Calm Calm - N/A   Clear
7:55 PM 63.7 °F 40.6 °F 43% 30.12 in 10.0 mi SE 3.5 mph - N/A   Clear
8:15 PM 61.7 °F 41.4 °F 47% 30.12 in 10.0 mi Calm Calm - N/A   Clear
8:35 PM 60.8 °F 42.1 °F 50% 30.12 in 10.0 mi ESE 3.5 mph - N/A   Clear
8:55 PM 59.0 °F 43.2 °F 56% 30.12 in 10.0 mi SE 3.5 mph - N/A   Clear
9:15 PM 59.0 °F 42.4 °F 54% 30.13 in 10.0 mi SE 3.5 mph - N/A   Clear
9:35 PM 59.5 °F 41.4 °F 51% 30.13 in 10.0 mi SE 3.5 mph - N/A   Clear
9:55 PM 60.1 °F 39.9 °F 47% 30.14 in 10.0 mi SE 4.6 mph - N/A   Clear
10:15 PM 59.4 °F 40.1 °F 49% 30.14 in 7.0 mi SE 4.6 mph - N/A   Clear
10:35 PM 59.0 °F 39.7 °F 49% 30.14 in 10.0 mi SE 4.6 mph - N/A   Clear
10:55 PM 59.4 °F 39.4 °F 48% 30.13 in 10.0 mi SE 3.5 mph - N/A   Clear
11:15 PM 59.0 °F 39.4 °F 48% 30.14 in 10.0 mi SSE 4.6 mph - N/A   Clear
11:35 PM 59.0 °F 39.2 °F 48% 30.14 in 10.0 mi SSE 3.5 mph - N/A   Clear
11:55 PM 59.0 °F 38.8 °F 47% 30.14 in 10.0 mi SSE 4.6 mph - N/A   Clear